Time,TemperatureF,DewpointF,PressureIn,WindDirection,WindDirectionDegrees,WindSpeedMPH,WindSpeedGustMPH,Humidity,HourlyPrecipIn,Conditions,Clouds,dailyrainin,SoftwareType,DateUTC
2013-06-19 00:02:00,75.0,72.8,29.89,SSE,160,1.0,8.0,93,0.00,,,0.35,Wunderground v.1.15,2013-06-19 04:02:00,
2013-06-19 00:04:00,75.0,72.8,29.90,SSW,212,0.0,8.0,93,0.00,,,0.35,Wunderground v.1.15,2013-06-19 04:04:00,
2013-06-19 00:08:00,75.2,73.0,29.90,SE,136,1.0,8.0,93,0.00,,,0.35,Wunderground v.1.15,2013-06-19 04:08:00,
2013-06-19 00:10:00,75.3,73.1,29.90,SSE,156,0.0,8.0,93,0.00,,,0.35,Wunderground v.1.15,2013-06-19 04:10:00,
2013-06-19 00:16:00,75.5,73.7,29.90,South,180,0.0,8.0,94,0.00,,,0.35,Wunderground v.1.15,2013-06-19 04:16:00,
2013-06-19 00:22:00,75.7,73.8,29.90,South,172,1.0,8.0,94,0.00,,,0.35,Wunderground v.1.15,2013-06-19 04:22:00,
2013-06-19 00:24:00,75.8,73.9,29.90,SSW,211,1.0,8.0,94,0.00,,,0.35,Wunderground v.1.15,2013-06-19 04:24:00,
2013-06-19 00:30:00,76.0,74.1,29.90,SSW,193,1.0,1.0,94,0.00,,,0.35,Wunderground v.1.15,2013-06-19 04:30:00,
2013-06-19 00:36:00,76.1,74.2,29.90,SSE,157,1.0,8.0,94,0.00,,,0.35,Wunderground v.1.15,2013-06-19 04:36:00,
2013-06-19 00:42:00,76.3,74.4,29.89,SSE,162,1.0,8.0,94,0.00,,,0.35,Wunderground v.1.15,2013-06-19 04:42:00,
2013-06-19 00:48:00,76.4,74.5,29.89,SW,221,1.0,8.0,94,0.00,,,0.00,Wunderground v.1.15,2013-06-19 04:48:00,
2013-06-19 00:54:00,76.6,74.7,29.89,SW,234,1.0,8.0,94,0.00,,,0.00,Wunderground v.1.15,2013-06-19 04:54:00,
2013-06-19 01:00:00,76.6,74.7,29.89,SW,228,1.0,8.0,94,0.00,,,0.00,Wunderground v.1.15,2013-06-19 05:00:00,
2013-06-19 01:06:00,76.8,74.9,29.89,ESE,123,1.0,8.0,94,0.00,,,0.00,Wunderground v.1.15,2013-06-19 05:06:00,
2013-06-19 01:12:00,76.9,75.0,29.89,SW,217,1.0,8.0,94,0.00,,,0.00,Wunderground v.1.15,2013-06-19 05:12:00,
2013-06-19 01:18:00,77.0,75.1,29.89,WSW,240,1.0,8.0,94,0.00,,,0.00,Wunderground v.1.15,2013-06-19 05:18:00,
2013-06-19 01:24:00,77.1,75.2,29.89,SE,143,1.0,8.0,94,0.00,,,0.00,Wunderground v.1.15,2013-06-19 05:24:00,
2013-06-19 01:30:00,77.2,75.3,29.89,SSE,167,1.0,8.0,94,0.00,,,0.00,Wunderground v.1.15,2013-06-19 05:30:00,
2013-06-19 01:36:00,77.3,75.4,29.89,SSW,198,1.0,8.0,94,0.00,,,0.00,Wunderground v.1.15,2013-06-19 05:36:00,
2013-06-19 01:42:00,77.4,75.5,29.89,South,171,1.0,8.0,94,0.00,,,0.00,Wunderground v.1.15,2013-06-19 05:42:00,
2013-06-19 01:48:00,77.5,75.6,29.89,SW,228,0.0,8.0,94,0.00,,,0.00,Wunderground v.1.15,2013-06-19 05:48:00,
2013-06-19 01:54:00,77.6,75.7,29.88,SW,219,1.0,8.0,94,0.00,,,0.00,Wunderground v.1.15,2013-06-19 05:54:00,
2013-06-19 02:00:00,77.7,75.8,29.88,SW,219,1.0,1.0,94,0.00,,,0.00,Wunderground v.1.15,2013-06-19 06:00:00,
2013-06-19 02:06:00,77.7,75.5,29.88,South,174,1.0,8.0,93,0.00,,,0.00,Wunderground v.1.15,2013-06-19 06:06:00,
2013-06-19 02:12:00,77.8,75.6,29.88,SSE,155,1.0,8.0,93,0.00,,,0.00,Wunderground v.1.15,2013-06-19 06:12:00,
2013-06-19 02:18:00,77.8,75.6,29.88,SE,142,0.0,8.0,93,0.00,,,0.00,Wunderground v.1.15,2013-06-19 06:18:00,
2013-06-19 02:24:00,77.7,75.5,29.88,SE,138,0.0,8.0,93,0.00,,,0.00,Wunderground v.1.15,2013-06-19 06:24:00,
2013-06-19 02:30:00,77.7,75.8,29.88,SSE,162,0.0,8.0,94,0.00,,,0.00,Wunderground v.1.15,2013-06-19 06:30:00,
2013-06-19 02:36:00,77.6,75.7,29.88,SW,221,1.0,8.0,94,0.00,,,0.00,Wunderground v.1.15,2013-06-19 06:36:00,
2013-06-19 02:42:00,77.6,75.7,29.88,SSW,195,0.0,8.0,94,0.00,,,0.00,Wunderground v.1.15,2013-06-19 06:42:00,
2013-06-19 02:48:00,77.7,75.8,29.88,East,81,1.0,8.0,94,0.00,,,0.00,Wunderground v.1.15,2013-06-19 06:48:00,
2013-06-19 02:54:00,77.7,75.8,29.88,South,183,1.0,8.0,94,0.00,,,0.00,Wunderground v.1.15,2013-06-19 06:54:00,
2013-06-19 03:00:00,77.6,75.7,29.88,SSE,162,1.0,8.0,94,0.00,,,0.00,Wunderground v.1.15,2013-06-19 07:00:00,
2013-06-19 03:06:00,77.5,75.6,29.87,SW,226,1.0,8.0,94,0.00,,,0.00,Wunderground v.1.15,2013-06-19 07:06:00,
2013-06-19 03:12:00,77.5,75.6,29.88,SSW,200,1.0,2.0,94,0.00,,,0.00,Wunderground v.1.15,2013-06-19 07:12:00,
2013-06-19 03:18:00,77.5,75.6,29.87,SW,229,1.0,8.0,94,0.00,,,0.00,Wunderground v.1.15,2013-06-19 07:18:00,
2013-06-19 03:24:00,77.4,75.5,29.87,SSE,147,1.0,8.0,94,0.00,,,0.00,Wunderground v.1.15,2013-06-19 07:24:00,
2013-06-19 03:30:00,77.5,75.6,29.87,South,176,1.0,8.0,94,0.00,,,0.00,Wunderground v.1.15,2013-06-19 07:30:00,
2013-06-19 03:36:00,77.4,75.5,29.88,South,190,1.0,8.0,94,0.00,,,0.00,Wunderground v.1.15,2013-06-19 07:36:00,
2013-06-19 03:42:00,77.4,75.5,29.88,WNW,295,0.0,8.0,94,0.00,,,0.00,Wunderground v.1.15,2013-06-19 07:42:00,
2013-06-19 03:48:00,77.3,75.4,29.88,SE,136,0.0,8.0,94,0.00,,,0.00,Wunderground v.1.15,2013-06-19 07:48:00,
2013-06-19 03:54:00,77.3,75.8,29.87,SSE,147,1.0,8.0,95,0.00,,,0.00,Wunderground v.1.15,2013-06-19 07:54:00,
2013-06-19 04:00:00,77.2,75.3,29.88,SE,141,1.0,1.0,94,0.00,,,0.00,Wunderground v.1.15,2013-06-19 08:00:00,
2013-06-19 04:06:00,77.2,75.7,29.87,SW,219,0.0,8.0,95,0.00,,,0.00,Wunderground v.1.15,2013-06-19 08:06:00,
2013-06-19 04:12:00,77.0,75.5,29.88,ESE,106,0.0,8.0,95,0.00,,,0.00,Wunderground v.1.15,2013-06-19 08:12:00,
2013-06-19 04:18:00,77.0,75.5,29.88,SE,132,0.0,8.0,95,0.00,,,0.00,Wunderground v.1.15,2013-06-19 08:18:00,
2013-06-19 04:24:00,76.8,75.3,29.88,North,358,0.0,8.0,95,0.00,,,0.00,Wunderground v.1.15,2013-06-19 08:24:00,
2013-06-19 04:30:00,76.8,75.3,29.88,North,356,0.0,8.0,95,0.00,,,0.00,Wunderground v.1.15,2013-06-19 08:30:00,
2013-06-19 04:36:00,76.8,75.3,29.88,NNW,332,0.0,8.0,95,0.00,,,0.00,Wunderground v.1.15,2013-06-19 08:36:00,
2013-06-19 04:42:00,76.7,75.2,29.88,NW,306,0.0,8.0,95,0.00,,,0.00,Wunderground v.1.15,2013-06-19 08:42:00,
2013-06-19 04:48:00,76.7,75.2,29.89,NW,321,0.0,8.0,95,0.00,,,0.00,Wunderground v.1.15,2013-06-19 08:48:00,
2013-06-19 04:54:00,76.7,75.2,29.88,NW,320,1.0,8.0,95,0.00,,,0.00,Wunderground v.1.15,2013-06-19 08:54:00,
2013-06-19 05:00:00,76.7,75.2,29.89,NW,314,1.0,1.0,95,0.00,,,0.00,Wunderground v.1.15,2013-06-19 09:00:00,
2013-06-19 05:06:00,76.7,74.8,29.89,WNW,301,1.0,8.0,94,0.00,,,0.00,Wunderground v.1.15,2013-06-19 09:06:00,
2013-06-19 05:12:00,76.6,74.7,29.89,NW,326,1.0,8.0,94,0.00,,,0.00,Wunderground v.1.15,2013-06-19 09:12:00,
2013-06-19 05:18:00,76.5,74.6,29.89,WNW,300,1.0,8.0,94,0.00,,,0.00,Wunderground v.1.15,2013-06-19 09:18:00,
2013-06-19 05:24:00,76.4,74.5,29.89,NNW,328,1.0,8.0,94,0.00,,,0.00,Wunderground v.1.15,2013-06-19 09:24:00,
2013-06-19 05:30:00,76.3,74.1,29.89,NW,317,0.0,8.0,93,0.00,,,0.00,Wunderground v.1.15,2013-06-19 09:30:00,
2013-06-19 05:36:00,76.2,74.0,29.90,NW,310,0.0,8.0,93,0.00,,,0.00,Wunderground v.1.15,2013-06-19 09:36:00,
2013-06-19 05:42:00,76.1,73.9,29.90,NNW,334,0.0,8.0,93,0.00,,,0.00,Wunderground v.1.15,2013-06-19 09:42:00,
2013-06-19 05:48:00,75.9,73.7,29.90,NNW,339,0.0,8.0,93,0.00,,,0.00,Wunderground v.1.15,2013-06-19 09:48:00,
2013-06-19 05:54:00,75.7,73.5,29.90,West,274,0.0,8.0,93,0.00,,,0.00,Wunderground v.1.15,2013-06-19 09:54:00,
2013-06-19 06:00:00,75.7,73.5,29.90,NNW,338,0.0,8.0,93,0.00,,,0.00,Wunderground v.1.15,2013-06-19 10:00:00,
2013-06-19 06:06:00,75.6,73.4,29.91,NNW,330,0.0,8.0,93,0.00,,,0.00,Wunderground v.1.15,2013-06-19 10:06:00,
2013-06-19 06:12:00,75.5,73.3,29.91,NNW,328,0.0,8.0,93,0.00,,,0.00,Wunderground v.1.15,2013-06-19 10:12:00,
2013-06-19 06:18:00,75.4,73.2,29.91,WNW,296,0.0,8.0,93,0.00,,,0.00,Wunderground v.1.15,2013-06-19 10:18:00,
2013-06-19 06:24:00,75.3,73.1,29.91,WNW,297,0.0,8.0,93,0.00,,,0.00,Wunderground v.1.15,2013-06-19 10:24:00,
2013-06-19 06:30:00,75.3,73.1,29.91,WNW,296,0.0,8.0,93,0.00,,,0.00,Wunderground v.1.15,2013-06-19 10:30:00,
2013-06-19 06:36:00,75.3,73.1,29.91,NW,308,0.0,8.0,93,0.00,,,0.00,Wunderground v.1.15,2013-06-19 10:36:00,
2013-06-19 06:42:00,75.3,73.1,29.92,NW,319,0.0,8.0,93,0.00,,,0.00,Wunderground v.1.15,2013-06-19 10:42:00,
2013-06-19 06:48:00,75.5,73.3,29.91,NNE,21,1.0,8.0,93,0.00,,,0.00,Wunderground v.1.15,2013-06-19 10:48:00,
2013-06-19 06:54:00,75.7,73.5,29.92,NNE,18,0.0,8.0,93,0.00,,,0.00,Wunderground v.1.15,2013-06-19 10:54:00,
2013-06-19 07:00:00,75.8,73.6,29.92,NE,45,0.0,8.0,93,0.00,,,0.00,Wunderground v.1.15,2013-06-19 11:00:00,
2013-06-19 07:06:00,75.9,73.7,29.92,NNE,31,0.0,8.0,93,0.00,,,0.00,Wunderground v.1.15,2013-06-19 11:06:00,
2013-06-19 07:12:00,76.1,73.9,29.92,NNW,333,0.0,8.0,93,0.00,,,0.00,Wunderground v.1.15,2013-06-19 11:12:00,
2013-06-19 07:18:00,76.8,74.6,29.93,NNW,333,0.0,8.0,93,0.00,,,0.00,Wunderground v.1.15,2013-06-19 11:18:00,
2013-06-19 07:24:00,77.2,74.4,29.93,ESE,111,0.0,8.0,91,0.00,,,0.00,Wunderground v.1.15,2013-06-19 11:24:00,
2013-06-19 07:30:00,77.0,74.2,29.93,ENE,72,0.0,8.0,91,0.00,,,0.00,Wunderground v.1.15,2013-06-19 11:30:00,
2013-06-19 07:36:00,76.8,74.0,29.93,North,4,0.0,8.0,91,0.00,,,0.00,Wunderground v.1.15,2013-06-19 11:36:00,
2013-06-19 07:42:00,76.9,74.1,29.94,North,359,0.0,8.0,91,0.00,,,0.00,Wunderground v.1.15,2013-06-19 11:42:00,
2013-06-19 07:48:00,77.0,74.2,29.94,North,352,0.0,8.0,91,0.00,,,0.00,Wunderground v.1.15,2013-06-19 11:48:00,
2013-06-19 07:54:00,77.1,74.3,29.94,NW,304,0.0,8.0,91,0.00,,,0.00,Wunderground v.1.15,2013-06-19 11:54:00,
2013-06-19 08:00:00,77.2,74.0,29.94,WNW,291,1.0,8.0,90,0.00,,,0.01,Wunderground v.1.15,2013-06-19 12:00:00,
2013-06-19 08:06:00,77.5,74.7,29.94,NW,316,1.0,8.0,91,0.00,,,0.01,Wunderground v.1.15,2013-06-19 12:06:00,
2013-06-19 08:12:00,78.1,74.6,29.94,SW,233,0.0,8.0,89,0.00,,,0.01,Wunderground v.1.15,2013-06-19 12:12:00,
2013-06-19 08:18:00,78.2,74.7,29.94,NW,305,0.0,8.0,89,0.00,,,0.01,Wunderground v.1.15,2013-06-19 12:18:00,
2013-06-19 08:24:00,78.3,74.5,29.95,West,277,0.0,8.0,88,0.00,,,0.01,Wunderground v.1.15,2013-06-19 12:24:00,
2013-06-19 08:30:00,78.5,74.6,29.95,SW,231,0.0,8.0,88,0.00,,,0.01,Wunderground v.1.15,2013-06-19 12:30:00,
2013-06-19 08:36:00,78.8,74.9,29.94,NNW,333,0.0,8.0,88,0.00,,,0.01,Wunderground v.1.15,2013-06-19 12:36:00,
2013-06-19 08:42:00,78.8,74.6,29.95,WNW,295,0.0,8.0,87,0.00,,,0.01,Wunderground v.1.15,2013-06-19 12:42:00,
2013-06-19 08:48:00,78.4,74.2,29.95,WNW,301,1.0,8.0,87,0.00,,,0.01,Wunderground v.1.15,2013-06-19 12:48:00,
2013-06-19 08:54:00,78.1,74.3,29.95,North,11,2.0,8.0,88,0.00,,,0.01,Wunderground v.1.15,2013-06-19 12:54:00,
2013-06-19 09:00:00,78.1,74.3,29.95,NW,325,2.0,8.0,88,0.00,,,0.01,Wunderground v.1.15,2013-06-19 13:00:00,
2013-06-19 09:06:00,78.1,74.3,29.95,NW,326,2.0,8.0,88,0.00,,,0.01,Wunderground v.1.15,2013-06-19 13:06:00,
2013-06-19 09:12:00,78.3,74.5,29.96,NNW,340,2.0,8.0,88,0.00,,,0.01,Wunderground v.1.15,2013-06-19 13:12:00,
2013-06-19 09:18:00,78.4,74.5,29.96,West,260,2.0,8.0,88,0.00,,,0.01,Wunderground v.1.15,2013-06-19 13:18:00,
2013-06-19 09:24:00,78.9,74.4,29.96,NE,44,2.0,8.0,86,0.00,,,0.01,Wunderground v.1.15,2013-06-19 13:24:00,
2013-06-19 09:30:00,79.0,74.8,29.96,West,280,2.0,2.0,87,0.00,,,0.01,Wunderground v.1.15,2013-06-19 13:30:00,
2013-06-19 09:36:00,79.0,74.5,29.96,WNW,290,1.0,8.0,86,0.00,,,0.01,Wunderground v.1.15,2013-06-19 13:36:00,
2013-06-19 09:42:00,79.9,75.3,29.96,NNE,23,1.0,8.0,86,0.00,,,0.01,Wunderground v.1.15,2013-06-19 13:42:00,
2013-06-19 09:48:00,80.3,75.0,29.96,NNW,348,1.0,8.0,84,0.00,,,0.01,Wunderground v.1.15,2013-06-19 13:48:00,
2013-06-19 09:54:00,81.4,76.1,29.96,SW,230,2.0,8.0,84,0.00,,,0.01,Wunderground v.1.15,2013-06-19 13:54:00,
2013-06-19 10:00:00,81.6,75.6,29.95,South,186,2.0,2.0,82,0.00,,,0.01,Wunderground v.1.15,2013-06-19 14:00:00,
2013-06-19 10:06:00,81.5,75.1,29.96,NNE,30,1.0,8.0,81,0.00,,,0.01,Wunderground v.1.15,2013-06-19 14:06:00,
2013-06-19 10:12:00,81.0,74.6,29.95,WNW,293,1.0,8.0,81,0.00,,,0.01,Wunderground v.1.15,2013-06-19 14:12:00,
2013-06-19 10:18:00,81.1,75.8,29.95,WNW,296,1.0,8.0,84,0.00,,,0.01,Wunderground v.1.15,2013-06-19 14:18:00,
2013-06-19 10:24:00,81.0,75.3,29.96,SE,144,1.0,8.0,83,0.00,,,0.01,Wunderground v.1.15,2013-06-19 14:24:00,
2013-06-19 10:30:00,80.9,74.9,29.96,West,274,1.0,8.0,82,0.00,,,0.01,Wunderground v.1.15,2013-06-19 14:30:00,
2013-06-19 10:36:00,80.7,75.4,29.96,NW,305,1.0,8.0,84,0.00,,,0.01,Wunderground v.1.15,2013-06-19 14:36:00,
2013-06-19 10:42:00,80.3,74.7,29.96,NNW,327,1.0,8.0,83,0.00,,,0.01,Wunderground v.1.15,2013-06-19 14:42:00,
2013-06-19 10:48:00,80.1,74.8,29.96,NW,314,1.0,8.0,84,0.00,,,0.01,Wunderground v.1.15,2013-06-19 14:48:00,
2013-06-19 10:54:00,80.1,74.8,29.97,NE,50,1.0,8.0,84,0.00,,,0.01,Wunderground v.1.15,2013-06-19 14:54:00,
2013-06-19 11:00:00,79.8,74.9,29.97,NE,41,1.0,8.0,85,0.00,,,0.01,Wunderground v.1.15,2013-06-19 15:00:00,
2013-06-19 11:06:00,79.8,74.9,29.97,SSW,200,1.0,8.0,85,0.00,,,0.01,Wunderground v.1.15,2013-06-19 15:06:00,
2013-06-19 11:12:00,79.9,75.0,29.98,NE,35,0.0,8.0,85,0.00,,,0.01,Wunderground v.1.15,2013-06-19 15:12:00,
2013-06-19 11:18:00,80.0,74.7,29.97,NNW,347,0.0,8.0,84,0.00,,,0.01,Wunderground v.1.15,2013-06-19 15:18:00,
2013-06-19 11:24:00,80.1,75.2,29.98,NNE,15,0.0,8.0,85,0.00,,,0.01,Wunderground v.1.15,2013-06-19 15:24:00,
2013-06-19 11:30:00,79.9,74.6,29.98,NE,41,1.0,8.0,84,0.00,,,0.01,Wunderground v.1.15,2013-06-19 15:30:00,
2013-06-19 11:36:00,79.9,75.0,29.97,NNE,20,1.0,8.0,85,0.00,,,0.01,Wunderground v.1.15,2013-06-19 15:36:00,
2013-06-19 11:42:00,80.0,74.4,29.98,NNE,21,1.0,8.0,83,0.00,,,0.01,Wunderground v.1.15,2013-06-19 15:42:00,
2013-06-19 11:48:00,80.4,74.8,29.98,NE,35,1.0,8.0,83,0.00,,,0.01,Wunderground v.1.15,2013-06-19 15:48:00,
2013-06-19 11:54:00,81.0,75.3,29.98,NNW,332,1.0,8.0,83,0.00,,,0.01,Wunderground v.1.15,2013-06-19 15:54:00,
2013-06-19 12:00:00,81.2,75.5,29.98,NE,39,1.0,8.0,83,0.00,,,0.01,Wunderground v.1.15,2013-06-19 16:00:00,
2013-06-19 12:06:00,80.8,75.2,29.98,WSW,243,1.0,8.0,83,0.00,,,0.01,Wunderground v.1.15,2013-06-19 16:06:00,
2013-06-19 12:12:00,81.0,74.6,29.98,NE,49,1.0,8.0,81,0.00,,,0.01,Wunderground v.1.15,2013-06-19 16:12:00,
2013-06-19 12:18:00,81.3,75.3,29.98,NNW,330,1.0,8.0,82,0.00,,,0.01,Wunderground v.1.15,2013-06-19 16:18:00,
2013-06-19 12:24:00,81.8,75.4,29.98,ENE,58,1.0,8.0,81,0.00,,,0.01,Wunderground v.1.15,2013-06-19 16:24:00,
2013-06-19 12:30:00,81.7,74.5,29.98,NE,56,1.0,8.0,79,0.00,,,0.01,Wunderground v.1.15,2013-06-19 16:30:00,
2013-06-19 12:36:00,81.1,74.7,29.98,NE,45,1.0,8.0,81,0.00,,,0.01,Wunderground v.1.15,2013-06-19 16:36:00,
2013-06-19 12:42:00,80.4,74.0,29.98,NE,34,1.0,2.0,81,0.00,,,0.01,Wunderground v.1.15,2013-06-19 16:42:00,
2013-06-19 12:48:00,80.2,74.6,29.98,North,349,1.0,8.0,83,0.00,,,0.01,Wunderground v.1.15,2013-06-19 16:48:00,
2013-06-19 12:54:00,79.9,74.6,29.98,NNE,30,1.0,8.0,84,0.00,,,0.01,Wunderground v.1.15,2013-06-19 16:54:00,
2013-06-19 13:00:00,79.2,74.3,29.98,NE,51,1.0,8.0,85,0.00,,,0.01,Wunderground v.1.15,2013-06-19 17:00:00,
2013-06-19 13:06:00,78.2,74.0,29.98,NE,44,1.0,8.0,87,0.00,,,0.01,Wunderground v.1.15,2013-06-19 17:06:00,